My Profile
  1. Member Settings
  2. My Devices
  3. Sign Out
        More Settings
      Elev 1677 ft, 42.205 °N 74.211 °W

      Hunter, NY

      Summary

      Temperature (°F)MaxAverageMin
      Max Temperature7362.1951
      Avg Temperature62.6352.9343.12
      Min Temperature5846.532
      Precipitation (in)MaxAverageMinSum
      Precipitation0000
      Dew Point (°F)MaxAverageMin
      Dew Point60.0944.532.71
      Wind (mph)MaxAverageMin
      Wind2414.225
      Gust Wind338.590
      Sea Level Pressure (in)MaxAverageMin
      Sea Level Pressure---

      Daily Observations

      DateTemp High/LowDew Pt High/LowHumidityWindMax WindWind GustPressurePrecip.Condition
      10/1/2022 64 °F / 51 °F 52 °F / 44 °F 73 % 20 mph - - 0 in
      10/2/2022 61 °F / 51 °F 51 °F / 38 °F 73 % 23 mph - - 0 in
      10/3/2022 56 °F / 49 °F 45 °F / 35 °F 63 % 20 mph - - 0 in
      10/4/2022 56 °F / 50 °F 49 °F / 40 °F 73 % 22 mph - - 0 in
      10/5/2022 60 °F / 51 °F 54 °F / 48 °F 89 % 23 mph - - 0 in
      10/6/2022 71 °F / 46 °F 57 °F / 45 °F 85 % 6 mph - - 0 in
      10/7/2022 73 °F / 51 °F 59 °F / 39 °F 79 % 16 mph - - 0 in
      10/8/2022 56 °F / 41 °F 42 °F / 32 °F 65 % 15 mph - - 0 in
      10/9/2022 63 °F / 37 °F 47 °F / 34 °F 72 % 14 mph - - 0 in
      10/10/2022 62 °F / 47 °F 49 °F / 41 °F 76 % 13 mph - - 0 in
      10/11/2022 66 °F / 44 °F 52 °F / 42 °F 82 % 9 mph - - 0 in
      10/12/2022 69 °F / 51 °F 52 °F / 43 °F 69 % 17 mph - - 0 in
      10/13/2022 65 °F / 53 °F 53 °F / 51 °F 86 % 14 mph - - 0 in
      10/14/2022 64 °F / 53 °F 52 °F / 48 °F 74 % 15 mph - - 0 in
      10/15/2022 65 °F / 42 °F 47 °F / 40 °F 84 % 17 mph - - 0 in
      10/16/2022 63 °F / 47 °F 48 °F / 40 °F 68 % 12 mph - - 0 in
      10/17/2022 55 °F / 44 °F 53 °F / 41 °F 92 % 5 mph - - 0 in
      10/18/2022 58 °F / 42 °F 52 °F / 34 °F 68 % 15 mph - - 0 in
      10/19/2022 51 °F / 37 °F 38 °F / 31 °F 74 % 18 mph - - 0 in
      10/20/2022 56 °F / 40 °F 39 °F / 27 °F 70 % 22 mph - - 0 in
      10/21/2022 60 °F / 38 °F 39 °F / 32 °F 60 % 10 mph - - 0 in
      10/22/2022 66 °F / 41 °F 48 °F / 35 °F 63 % 14 mph - - 0 in
      10/23/2022 58 °F / 42 °F 48 °F / 39 °F 81 % 7 mph - - 0 in
      10/24/2022 58 °F / 54 °F 56 °F / 45 °F 92 % 9 mph - - 0 in
      10/25/2022 68 °F / 56 °F 65 °F / 55 °F 96 % 6 mph - - 0 in
      10/26/2022 70 °F / 58 °F 63 °F / 54 °F 90 % 14 mph - - 0 in
      10/27/2022 60 °F / 47 °F 54 °F / 34 °F 62 % 22 mph - - 0 in
      10/28/2022 54 °F / 43 °F 37 °F / 31 °F 62 % 24 mph - - 0 in
      10/29/2022 66 °F / 33 °F 40 °F / 23 °F 68 % 8 mph - - 0 in
      10/30/2022 65 °F / 32 °F 44 °F / 21 °F 67 % 8 mph - - 0 in
      10/31/2022 62 °F / 43 °F 53 °F / 29 °F 69 % 14 mph - - 0 in
      essentialaccessibility.com
      We recognize our responsibility to use data and technology for good. We may use or share your data with our data vendors. Take control of your data.
      Glossary